This demonstration page uses our WeatherBlox Daily Observations layout. Learn more.

36.17497, -115.13722

Hourly Observations for August 19, 2019

Temp ( °F °C ) Dew Point ( °F °C ) Humidity (%) Winds ( mph kmh ) Pressure ( in mb ) Visibility ( mi km ) Precip ( " mm )
12:53 am 00:53 Clear 81 27.2 26 -3.3 13 13 Calm 29.8 1009 10 16.09344 0 0
1:53 am 01:53 Clear 80 26.7 27 -2.8 14 14 Calm 29.8 1009 10 16.09344 0 0
2:53 am 02:53 Clear 77 25 28 -2.2 16 16 NNW 5 7 29.83 1010 10 16.09344 0 0
3:53 am 03:53 Clear 76 24.4 27 -2.8 16 16 NNW 5 7 29.83 1010 10 16.09344 0 0
4:53 am 04:53 Clear 73 22.8 25 -3.9 17 17 NNW 5 7 29.83 1010 10 16.09344 0 0
5:53 am 05:53 Clear 73 22.8 27 -2.8 18 18 NNW 5 7 29.85 1011 10 16.09344 0 0
6:53 am 06:53 Sunny 74 23.3 30 -1.1 20 20 NNW 5 7 29.88 1012 10 16.09344 0 0
7:53 am 07:53 Sunny 79 26.1 30 -1.1 17 17 NNE 3 6 29.88 1012 10 16.09344 0 0
8:53 am 08:53 Sunny 83 28.3 27 -2.8 13 13 Calm 29.88 1012 10 16.09344 0 0
9:53 am 09:53 Sunny 88 31.1 30 -1.1 12 12 SSE 6 9 29.91 1013 10 16.09344 0 0
10:53 am 10:53 Sunny 93 33.9 30 -1.1 10 10 SSE 14 22 29.88 1012 10 16.09344 0 0
11:53 am 11:53 Sunny 97 36.1 24 -4.4 7 7 SE 13 20 29.88 1012 10 16.09344 0 0
12:53 pm 12:53 Sunny 98 36.7 24 -4.4 7 7 SSE 13 20 29.85 1011 10 16.09344 0 0
1:53 pm 13:53 Sunny 101 38.3 23 -5 6 6 S 15 24 29.83 1010 10 16.09344 0 0
2:53 pm 14:53 Sunny 102 38.9 22 -5.6 6 6 S 16 26 29.83 1010 10 16.09344 0 0
3:53 pm 15:53 Sunny 102 38.9 24 -4.4 6 6 VRB 7 11 29.8 1009 10 16.09344 0 0
4:53 pm 16:53 Sunny 103 39.4 23 -5 6 6 VRB 6 9 29.77 1008 10 16.09344 0 0
5:53 pm 17:53 Sunny 102 38.9 22 -5.6 6 6 WSW 8 13 29.77 1008 10 16.09344 0 0
6:53 pm 18:53 Sunny 101 38.3 22 -5.6 6 6 WNW 9 15 29.77 1008 10 16.09344 0 0
7:53 pm 19:53 Clear 97 36.1 22 -5.6 7 7 W 10 17 29.77 1008 10 16.09344 0 0
8:53 pm 20:53 Clear 95 35 22 -5.6 7 7 WSW 8 13 29.8 1009 10 16.09344 0 0
9:53 pm 21:53 Clear 92 33.3 22 -5.6 8 8 SW 6 9 29.83 1010 10 16.09344 0 0
10:53 pm 22:53 Clear 89 31.7 25 -3.9 10 10 S 3 6 29.83 1010 10 16.09344 0 0
11:53 pm 23:53 Clear 85 29.4 26 -3.3 12 12 NNW 3 6 29.83 1010 10 16.09344 0 0

Powered by AerisWeather